Regional Weather Roundup
Issued by NWS Wakefield, VA

Home | Current Version | Previous Version | Graphics & Text | Print | Product List | Glossary On
Versions: 1 2 3 4 5 6 7 8 9 10 11 12 13 14 15 16 17 18 19 20 21 22 23 24 25 26 27 28 29 30 31 32 33 34 35 36 37 38 39 40 41 42 43 44 45 46 47 48 49 50
000
ASUS41 KAKQ 282114
RWRAKQ

REGIONAL WEATHER ROUNDUP
NATIONAL WEATHER SERVICE WAKEFIELD VA
500 PM EDT FRI AUG 28 2015

Note: "fair" indicates few or no clouds below 12,000 feet with no
significant weather and/or obstructions to visibility. * = Denotes
station may not report precipitation (e.g., rain,snow,etc.),
thunder or fog.

VAZ042-051-052>054-056-282200-
NORTHERN VIRGINIA

CITY           SKY/WX    TMP DP  RH WIND       PRES   REMARKS
WASH NATIONAL  MOSUNNY   82  58  43 S6        30.14F
DULLES         MOSUNNY   81  56  42 W6        30.14F
FORT BELVOIR   MOSUNNY   81  61  49 S2        30.14F
QUANTICO       NOT AVBL
FREDERICKSBRG* SUNNY     85  59  41 E5        30.13S
STAFFORD*      SUNNY     83  57  41 E5        30.18S
WARRENTON      MOSUNNY   84  63  48 CALM      30.14S
CULPEPER*      MOSUNNY   81  62  50 SE5       30.14F
MANASSAS*      NOT AVBL
LEESBURG*      SUNNY     82  61  47 W3        30.15F
WINCHESTER     CLOUDY    81  57  44 E3        30.15S
FRONT ROYAL*   FAIR      79  61  53 E6        30.13F
LURAY*         MOCLDY    81  57  44 E5        30.14S
$$

VAZ048-049-060>072-079>083-282200-
CENTRAL AND SOUTH CENTRAL VIRGINIA

CITY           SKY/WX    TMP DP  RH WIND       PRES   REMARKS
RICHMOND       MOSUNNY   81  59  47 E7        30.15S
CHESTERFIELD*  FAIR      81  54  39 SW3       30.16F
PETERSBURG*    CLOUDY    84  63  49 NE7       30.15F
HANOVER        SUNNY     84  57  39 CALM      30.16F
TAPPAHANNOCK*  MOSUNNY   83  51  32 CALM      30.16S
QUINTON*       FAIR      82  60  48 CALM      30.15S
CHARLOTTSVILLE SUNNY     82  61  48 S7        30.14F
GORDONSVILLE*  FAIR      82  62  50 CALM      30.13F
ORANGE*        SUNNY     82  59  44 E3        30.15F
LOUISA*        SUNNY     82  61  47 SE3       30.14S
BUMPASS*       FAIR      83  60  45 S3        30.15S
FARMVILLE*     SUNNY     85  54  34 CALM      30.13F
CREWE*         MOCLDY   N/A N/A N/A CALM      30.15S
FORT PICKETT*  CLOUDY    80  59  48 CALM      30.15F
CHASE CITY*    MOCLDY    83  62  48 CALM      30.15S
CLARKSVILLE*   FAIR      82  59  44 NE3       30.15S
SOUTH HILL*    SUNNY     82  60  46 CALM      30.20F
LAWRENCEVILLE* FAIR      82  59  44 NE3       30.14F
EMPORIA*       PTSUNNY   82  59  44 NE6       30.15F
$$

VAZ088>098-282200-
SOUTHEAST VIRGINIA

CITY           SKY/WX    TMP DP  RH WIND       PRES   REMARKS
NORFOLK        SUNNY     80  56  43 VRB7      30.16S
VIRGINIA BEACH MOSUNNY   81  58  45 NE9       30.15F
NORFOLK NAVAL  MOSUNNY   81  56  42 E7        30.17F
WEST POINT*    MOSUNNY   86  56  35 E8        30.16S
SALUDA*        FAIR      78  59  51 E7        30.16S
NEWPORT NEWS   SUNNY     82  54  37 E12       30.15F
LANGLEY AFB    SUNNY     81  55  41 E9        30.14F
FORT EUSTIS    SUNNY     84  58  41 E5        30.13F
WILLIAMSBURG*  SUNNY     88  63  42 CALM      30.16S
HR EXEC AP*      N/A     82  57  42 E8        30.17S
FRANKLIN*      MOSUNNY   82  58  43 E10       30.15S
WAKEFIELD      MOSUNNY   84  59  42 NE6       30.14F
$$

VAZ020-022-025-037-045-282200-
WEST CENTRAL AND SOUTHWEST VIRGINIA

CITY           SKY/WX    TMP DP  RH WIND       PRES   REMARKS
STAUNTON*      PTSUNNY   85  57  38 S5        30.17S
WAYNESBORO*    FAIR      82  61  49 SE9       30.16F
HOT SPRINGS VA MOSUNNY   74  59  59 S6        30.26F
LYNCHBURG      MOSUNNY   80  58  46 E5        30.17F
DANVILLE       SUNNY     85  56  37 E3        30.15F
SOUTH BOSTON*  FAIR      84  56  37 CALM      30.14F
MARTINSVILLE   MOSUNNY   85  59  40 E9        30.18F
ROANOKE        PTSUNNY   80  60  50 SE8       30.17S
BLACKSBURG     PTSUNNY   82  60  47 SW3       30.22S
DUBLIN*        PTSUNNY   81  58  46 S3        30.20F
MARION*        PTSUNNY   77  60  54 SE5       30.23S
HILLSVILLE*    MOSUNNY   76  60  57 S6        30.22F
RICHLANDS*     MOCLDY    75  25  15 CALM      30.21F
WISE*          PTSUNNY   79  57  47 N3        30.22F
ABINGDON*      SUNNY     80  57  44 CALM      30.18S
$$

MDZ021>025-VAZ099-100-282200-
SOUTHERN MARYLAND AND THE DELMARVA PENINSULA

CITY           SKY/WX    TMP DP  RH WIND       PRES   REMARKS
PATUXENT RIVER MOSUNNY   79  56  45 E5        30.15F
BAY BRIDGE APT   N/A     79  52  38 E5        30.15S
LEONARDTOWN    SUNNY     79  57  47 CALM      30.17S
DOVER          CLOUDY    77  63  62 E6        30.13F
GEORGETOWN     MOSUNNY   78  54  43 SE7       30.16S
EASTON         NOT AVBL
CAMBRIDGE      SUNNY     81  52  36 CALM      30.15S
SALISBURY      PTSUNNY   77  58  51 SE9       30.15F
OCEAN CITY     SUNNY     78  55  44 SE7       30.16F
WALLOPS ISLAND SUNNY     79  57  46 VRB7      30.17S
ACCOMACK*      MOSUNNY  N/A N/A N/A SE6       30.16S
$$

NCZ012>017-030>032-282200-
NORTH CENTRAL AND EASTERN NORTH CAROLINA

CITY           SKY/WX    TMP DP  RH WIND       PRES   REMARKS
ROANOKE RAPIDS FAIR      82  55  39 E3        30.14S
RALEIGH        PTSUNNY   85  56  37 E6        30.14F
ELIZABETH CITY PTSUNNY   79  61  53 NE12      30.15S
AHOSKIE*       SUNNY     82  58  44 N5        30.14S
EDENTON*       PTSUNNY   80  59  48 E8        30.15S
CURRITUCK*     PTSUNNY   79  58  48 NE6       30.16S
KILL DEVIL HLS PTSUNNY   81  62  51 N7        30.14S
MANTEO         PTSUNNY   78  63  60 NE10      30.15S
CAPE HATTERAS  MOSUNNY   80  66  62 NE12G18   30.12F
TARBORO*       MOCLDY    85  56  37 E5        30.14S
GOLDSBORO      MOSUNNY   85  61  43 NE8       30.12S
WASHINGTON     PTSUNNY   81  61  50 E9        30.13F HAZE
GREENVILLE     PTSUNNY   82  63  51 E5        30.15S
NEW BERN       MOSUNNY   83  61  47 NE12      30.13F
WILMINGTON     MOSUNNY   84  66  54 E8        30.10F
$$

VAZ048-282200-
ELSEWHERE

CITY           SKY/WX    TMP DP  RH WIND       PRES   REMARKS
HARRISBURG PA  MOSUNNY   81  54  39 CALM      30.14F
BALTIMORE      PTSUNNY   79  59  50 SE6       30.14S
ANNAPOLIS      SUNNY     77  59  53 SE8       30.15S
ANDREWS AFB    MOSUNNY   79  61  53 SE10      30.14F
PHILADELPHIA   MOSUNNY   84  53  34 VRB5      30.14F
HENDERSON NC   MOSUNNY   84  50  31 NE6       30.15F
GREENSBORO     PTSUNNY   83  56  39 NW3       30.15F
ROCKY MOUNT    MOSUNNY   86  54  33 NE10      30.14S
$$

VAZ100-282200-
MARINE

STATION/POSITION TIME  TEMP    WIND        PRES    WAVE   SWELL
                       AIR SEA DIR/SP/G            HT/PER HT/PER
                 (UTC) (F)     (DEG/KT/KT) (MB)    (FT/S) (FT/S)
15NM E FENWICK I 2050   74 79   80/  4/  6 1021.5F   3/ 9   3/ 9
THOMAS POINT MD  2000   76     150/  4     1021.7F
CHESAPEAKE LGHT  2000   75      60/ 10/ 12 1021.9F
CAPE HENRY BUOY  2028      79                N/A     3/10   2/11
CAPE CHARLES BUO 2026      79                N/A     3/10   3/10
OFFSHORE WE BUOY 2011      78                N/A     4/11   3/11
64NM E OF VA BCH 2050   76 80   20/ 16/ 17 1020.3R   4/ 9   3/ 9
44100 DUCK FRF   2024      78                N/A     4/11   2/11
44056 DUCK FRF   2011      79                N/A     4/ 9   2/11
DIAMOND SHLS NC  2050   79 84   30/ 17/ 21 1019.4F   5/ 8   3/ 8
CAPE LOOKOUT NC  2100   79      40/ 17/ 20 1019.4F
$$



USA.gov is the U.S. government's official web portal to all federal, state and local government web resources and services.